Tracking 30995 objects as of 5-Jul-2025
HD Live streaming from Space Station
objects crossing your sky now

STARLINK-4133

Track STARLINK-4133 now!
10-day predictions
STARLINK-4133 is classified as:


NORAD ID: 53253
Int'l Code: 2022-086M
Perigee: 546.1 km
Apogee: 547.7 km
Inclination: 53.2 °
Period: 95.4 minutes
Semi major axis: 6917 km
RCS: Unknown
Launch date: July 24, 2022
Source: United States (US)
Launch site: AIR FORCE EASTERN TEST RANGE (AFETR)
Your satellite tracking list
Your tracking list is empty




NASA's NSSDC Master Catalog

Two Line Element Set (TLE):
1 53253U 22086M   25186.49064602 -.00000148  00000-0  87814-5 0  9996
2 53253  53.2163 223.8397 0001152  85.0638 275.0486 15.08834742163568
Source of the keplerian elements: AFSPC